Tracking 25734 objects as of 26-May-2022
HD Live streaming from Space Station
objects crossing your sky now

COSMOS 2251 DEB

Track COSMOS 2251 DEB now!
10-day predictions


NORAD ID: 34965
Int'l Code: 1993-036AEU
Perigee: 732.4 km
Apogee: 771.6 km
Inclination: 74.1 °
Period: 99.7 minutes
Semi major axis: 7123 km
RCS: 0.0084 m2 (small)
Launch date: June 16, 1993
Source: Commonwealth of Independent States (former USSR) (CIS)
Launch site: PLESETSK MISSILE AND SPACE COMPLEX (PKMTR)

Note: This is SATELLITE DEBRIS
aabbcc
Your satellite tracking list
Your tracking list is empty




NASA's NSSDC Master Catalog

Two Line Element Set (TLE):
1 34965U 93036AEU 22145.34691889  .00000917  00000-0  27382-3 0  9992
2 34965  74.0552  27.0119 0027478 120.7113 239.6757 14.44134914683590
Source of the keplerian elements: AFSPC